Location: Eckley
(40.9930°N, 75.8630°W)
Time: 11:36:55
(UTC-04:00)

Daily predictions for brighter satellites

Satellite Brightness Start Highest point End
(mag) Time Altitude Azimuth Time Altitude Azimuth Time Altitude Azimuth
Cosmos 2016 Rocket 4.5 20:47:36 10° SSW 20:53:39 67° W 20:59:47 10° N
Cosmos 468 Rocket 4.0 20:48:39 10° S 20:53:51 64° ESE 20:59:02 10° NNE
Cosmos 1937 Rocket 4.1 20:51:00 10° N 20:55:53 42° ENE 21:00:45 10° SE
Resurs 1-3 3.6 20:52:28 10° SSE 20:56:50 81° ENE 21:01:14 10° N
Cosmos 1763 Rocket 3.9 20:53:24 10° S 20:58:23 43° ESE 21:03:23 10° NNE
Cosmos 304 Rocket 4.3 20:53:44 10° SSW 20:58:31 66° WNW 21:03:20 10° NNE
Cosmos 1455 Rocket 4.4 20:59:54 10° NNE 21:03:29 24° ENE 21:07:04 10° SE
Cosmos 841 Rocket 4.2 21:00:16 10° SSE 21:04:56 34° E 21:09:40 10° NE
Cosmos 1725 Rocket 4.3 21:00:50 10° SSW 21:06:59 72° W 21:13:13 10° N
deb Kosmos-1763 4.1 21:04:46 10° SSW 21:08:28 88° ESE 21:12:12 10° NNE
Cosmos 1378 Rocket 4.1 21:05:09 10° SSW 21:09:24 63° W 21:13:42 10° N
BREEZE-M DEB (TANK) 2.3 21:06:36 10° WNW 21:09:40 38° SW 21:11:29 11° SSE
BREEZE-M DEB (TANK) 2.3 21:08:10 10° WNW 21:10:20 60° SSW 21:13:55 11° SE
Tsikada Rocket 4.3 21:04:09 10° N 21:10:35 80° W 21:16:59 10° S
Cosmos 2360 Rocket 3.2 21:07:20 10° N 21:12:21 32° ENE 21:17:11 11° ESE
Atlas Centaur 2 3.3 21:11:58 10° SW 21:13:48 13° SSW 21:15:32 10° SSE
USA 234 3.3 21:07:28 10° NE 21:13:57 58° SE 21:20:23 10° SSW
Cosmos 1975 Rocket 3.0 21:10:16 10° S 21:14:33 68° E 21:18:51 10° NNE
Cosmos 2219 Rocket 4.4 21:13:12 10° NNE 21:14:59 11° NE 21:16:45 10° ENE
Cosmos 1980 Rocket 3.7 21:09:56 10° NW 21:14:59 34° WSW 21:20:03 10° SSW
NOSS 3-2 (A) 4.2 21:09:13 10° SW 21:15:01 58° NW 21:21:30 10° NNE
ERS-2 2.9 21:11:41 10° S 21:15:17 53° WSW 21:18:55 10° NNW
Abrixas rocket 3.5 21:13:04 10° W 21:16:10 43° NNW 21:19:16 10° NE
Okean 1 Rocket 3.8 21:12:39 10° NNW 21:16:54 53° W 21:21:06 10° S
USA 186 3.8 21:15:06 10° SSW 21:17:58 29° W 21:20:59 10° NNW
Cosmos 1975 3.1 21:14:33 10° NNW 21:18:36 71° W 21:22:34 10° S
Cosmos 1666 2.8 21:15:02 10° N 21:18:56 83° W 21:22:47 10° S
Cosmos 858 Rocket 4.5 21:14:33 10° NNW 21:19:47 79° ENE 21:24:59 10° SSE
Meteor 1-19 Rocket 4.3 21:14:44 10° S 21:20:37 74° E 21:26:31 10° NNE
NOSS 3-2 (C) 3.8 21:15:46 10° SW 21:21:39 71° NW 21:28:13 10° NNE
ISS -1.1 21:20:10 10° WNW 21:22:45 21° NNW 21:25:21 10° NNE
Tiangong 2 1.5 21:21:05 10° W 21:24:13 64° N 21:27:22 10° ENE
Cosmos 2084 3.8 21:20:01 10° SW 21:24:19 68° NW 21:28:25 10° NNE
Shenzhou-11 Module 1.9 21:24:16 10° WNW 21:27:15 88° N 21:29:32 16° ESE
Meteor 2-9 Rocket 4.3 21:22:14 10° N 21:27:32 59° ENE 21:32:34 12° SSE
MetOp-A 4.4 21:23:32 12° SE 21:28:25 52° ENE 21:33:36 10° N
Cosmos 292 Rocket 3.9 21:24:42 10° S 21:29:18 52° ESE 21:33:56 10° NNE
ATLAS CENTAUR R/B 4.3 21:24:49 10° SW 21:31:06 87° NW 21:51:06 10° NE
Cosmos 1544 Rocket 3.9 21:26:49 10° N 21:31:07 48° E 21:34:35 15° SSE
ERS-1 Rocket 3.8 21:27:43 14° SE 21:31:29 35° ENE 21:36:02 10° N
Cosmos 1743 3.3 21:30:27 10° NNW 21:34:13 57° W 21:37:57 10° S
ATLAS CENTAUR R/B 4.3 21:34:47 10° W 21:36:45 12° WSW 21:38:43 10° SW
CENTAUR R/B 2.4 21:31:58 10° SSW 21:37:48 71° ESE 21:44:34 10° NE
Iridium 2 3.7 21:34:21 10° S 21:38:10 88° W 21:42:01 10° N
SJ 16-02 2.5 21:37:03 10° N 21:40:57 29° ENE 21:43:26 18° ESE
Cosmos 2333 Rocket 4.2 21:38:01 10° N 21:41:32 16° NE 21:45:03 10° E
Cosmos 1898 Rocket 4.2 21:36:28 10° NNW 21:41:37 53° WSW 21:46:47 10° S
Helios 1B rocket 4.1 21:39:43 10° NE 21:42:18 16° E 21:42:55 16° ESE
CZ-4C R/B 4.0 21:37:45 10° NNW 21:44:05 34° NE 21:50:36 12° ESE
Cosmos 1356 3.6 21:42:01 16° SSE 21:44:30 50° E 21:47:53 10° NNE
Cosmos 1814 Rocket 4.2 21:39:37 10° SSW 21:44:52 77° WNW 21:50:13 10° NNE
COSMOS 2428 4.1 21:40:16 10° N 21:44:55 25° NE 21:48:38 14° ESE
Cosmos 1536 Rocket 3.9 21:44:47 16° SSE 21:47:59 46° E 21:52:16 10° NNE
Resurs 01 Rocket 3.5 21:47:29 10° SSW 21:51:13 27° W 21:54:59 10° NW
Cosmos 1072 Rocket 4.5 21:45:25 10° S 21:51:45 75° E 21:58:01 10° N
Cosmos 1833 4.1 21:46:20 10° SSW 21:52:03 74° ESE 21:57:45 10° NNE
H-2A R/B 2.0 21:48:26 18° SSE 21:52:05 69° ENE 21:57:07 10° N
Meteor 2-4 Rocket 3.7 21:48:45 10° S 21:54:11 84° W 21:59:49 10° N
Cosmos 1125 Rocket 4.4 21:50:03 10° N 21:54:53 36° ENE 21:57:45 21° ESE
SL-08 RB Rocket 3.7 21:52:38 20° SSE 21:55:45 74° ENE 22:00:20 10° N
Aureole 2 Rocket 2.0 21:56:49 10° NNW 21:59:42 67° WSW 22:00:42 34° S
Lacrosse 5 rocket 1.7 21:55:57 10° NW 22:00:15 58° NE 22:02:25 26° ESE
ARGOS 3.2 21:56:26 15° S 22:00:56 79° WSW 22:06:23 10° NNW
Cosmos 1515 3.6 22:00:43 20° S 22:03:18 75° E 22:07:09 10° N
Cosmos 2322 Rocket 3.2 22:02:06 10° NW 22:07:19 41° WSW 22:12:02 12° S
Cosmos 2322 3.9 22:02:03 10° NNW 22:07:45 64° ENE 22:10:59 26° SE
Cosmos 2237 Rocket 4.3 22:07:41 10° NNE 22:11:03 16° NE 22:14:24 10° E
DMSP B5D2-2 4.1 22:07:36 10° NNE 22:12:51 60° E 22:16:12 22° S
SL-16 R/B 3.6 22:12:27 10° NW 22:17:25 32° WSW 22:22:11 11° SSW
Landsat 7 4.2 22:18:59 31° SE 22:20:52 49° ENE 22:25:28 10° N
Cosmos 1340 Rocket 4.1 22:19:13 10° SSW 22:23:03 41° WNW 22:26:56 10° N
Cosmos 1025 Rocket 3.1 22:27:28 40° SSE 22:28:46 58° E 22:33:05 10° NNE
Cosmos 540 Rocket 3.7 22:23:52 10° SSW 22:29:00 70° WNW 22:34:12 10° NNE
Cosmos 2034 Rocket 4.1 22:29:19 15° SSW 22:34:30 77° W 22:40:41 10° N
Cosmos 2219 3.5 22:34:42 34° SSE 22:36:41 47° ESE 22:42:10 10° NE
Cosmos 2237 4.3 22:32:46 10° NNW 22:38:31 75° WSW 22:41:05 34° S
SPOT 5 2.6 22:37:55 41° S 22:39:28 82° WSW 22:44:05 10° NNW
Terra 2.2 22:38:20 38° ESE 22:39:39 49° ENE 22:44:15 10° N
USA 245 4.0 22:38:32 32° SSW 22:39:48 46° W 22:44:03 10° NNW
Cosmos 1544 3.7 22:37:39 10° N 22:41:11 40° ENE 22:41:11 40° ENE
Spot 1 4.0 22:44:11 53° ESE 22:44:52 64° ENE 22:48:54 10° N
Helios 1A 3.5 22:51:27 38° SSW 22:52:39 51° W 22:56:44 10° NNW
Okean 2 4.0 22:52:12 31° SW 22:53:55 54° W 22:58:01 10° N
DELTA 2 R/B (1) 4.2 22:49:26 10° SW 22:53:20 36° S 22:53:20 36° S
CZ-2C R/B 3.3 22:50:13 10° NNE 22:55:26 38° E 22:56:06 37° ESE
YAOGAN 11 4.3 22:55:17 50° ESE 22:55:59 56° ENE 23:00:26 10° N
Cosmos 2360 Rocket 3.2 22:51:13 10° NW 22:56:22 37° WSW 22:58:59 24° SSW
Cosmos 372 Rocket 4.3 22:51:48 10° NNW 22:56:48 57° WSW 22:58:30 38° SSW
USA 234 4.3 22:50:37 10° NE 22:56:49 46° NNW 23:03:01 10° WSW
BREEZE M DEB (TANK) 3.7 22:52:25 10° WNW 22:58:10 28° WSW 22:58:38 27° SW
Cosmos 2219 Rocket 2.2 22:54:28 10° NNW 23:00:03 67° ENE 23:01:38 46° SE
ISS -0.6 22:58:35 10° NNW 23:00:11 13° N 23:01:45 10° NNE
Cosmos 1634 Rocket 4.0 22:58:16 39° SSE 23:00:41 70° E 23:06:59 10° NNE
Tiangong 2 2.1 22:57:56 10° WNW 23:00:16 45° WNW 23:00:16 45° WNW
Cosmos 2333 4.2 22:55:46 10° NNW 23:01:26 79° WSW 23:03:13 46° S
Cosmos 1356 Rocket 4.2 23:05:19 32° SW 23:06:54 49° WNW 23:11:05 10° N
COSMOS 2455 3.4 23:10:58 37° ESE 23:10:58 37° ESE 23:16:23 10° NE
Cosmos 1892 Rocket 3.6 23:14:31 60° E 23:14:31 60° E 23:18:36 10° NNE
Nimbus 7 Rocket 4.3 23:08:58 10° NNE 23:14:53 85° ESE 23:16:59 43° S
CZ-2C R/B 3.1 23:16:09 55° SSE 23:17:24 86° ENE 23:23:04 10° NNW
Cosmos 192 4.2 23:16:53 66° S 23:17:34 82° ESE 23:22:30 10° NNE
Helios 1B rocket 3.6 23:13:53 10° N 23:17:46 40° WNW 23:19:15 29° WSW
SJ 16-02 3.0 23:15:47 10° NW 23:19:24 25° W 23:20:26 22° WSW
Cosmos 1842 4.1 23:20:57 41° NE 23:20:57 41° NE 23:23:53 10° NNE
Cosmos 1805 3.9 23:17:15 10° N 23:20:32 45° NE 23:20:32 45° NE
Cosmos 1538 Rocket 4.0 23:24:21 58° ESE 23:24:27 58° ESE 23:29:36 10° NNE
Cosmos 2228 3.1 23:21:40 10° N 23:25:44 65° ENE 23:25:44 65° ENE
Cosmos 2333 Rocket 2.1 23:20:49 10° NNW 23:26:34 86° WSW 23:27:41 60° SSE
Okean 1-7 Rocket 4.1 23:27:08 48° WSW 23:27:59 56° W 23:32:28 10° N
IGS 5A 4.3 23:28:32 38° WSW 23:28:48 39° W 23:32:43 10° NNW
SL-16 R/B 3.8 23:24:15 10° N 23:28:52 25° NE 23:30:55 20° E
COSMOS 2428 3.2 23:23:58 10° NW 23:29:25 50° WSW 23:30:38 43° SW
H-2A R/B 4.4 23:29:49 10° WSW 23:32:02 13° W 23:34:18 10° WNW
CZ-4C R/B 3.0 23:25:54 10° NW 23:33:11 67° WSW 23:35:47 44° S
Cosmos 1726 Rocket 3.5 23:29:29 10° N 23:33:54 76° W 23:33:54 76° W
Cosmos 1980 3.7 23:32:40 10° NNW 23:38:21 72° ENE 23:39:12 61° ESE
Lacrosse 5 rocket 3.5 23:36:14 10° WNW 23:38:05 16° WSW 23:38:05 16° WSW
Cosmos 2180 Rocket 4.5 23:38:13 56° SSE 23:39:26 68° E 23:45:40 10° NNE
COBE Rocket 4.3 23:37:10 10° NNE 23:41:17 49° ENE 23:41:17 49° ENE
ERBS 4.5 23:41:39 10° NNW 23:44:10 23° NNE 23:44:10 23° NNE
Cosmos 2297 Rocket 2.1 23:44:24 64° ESE 23:44:35 64° ESE 23:50:12 10° NNE
Cosmos 2227 Rocket 2.0 23:47:43 71° SSE 23:48:13 78° ESE 23:53:54 10° NNE
Cosmos 1953 3.6 23:44:56 10° N 23:47:46 33° NE 23:47:46 33° NE
Cosmos 2058 Rocket 3.2 23:46:31 10° NNW 23:50:47 69° WNW 23:50:47 69° WNW
